[[[{"header":{"parameterUnit":"kt","parameterCategory":2,"dx":1,"dy":1,"la1":30.253999710083008,"la2":30.299108505249023,"lo1":-89.0895004272461,"lo2":-89.04439544677734,"nx":28,"ny":28,"refTime":"2022-10-26T21:00:00:Z","depth":0,"parameterNumber":1,"parameterNumberName":"U-component_of_WINDS"},"data":[1.2671,1.264,1.2607,1.2556,1.2518,1.2477,1.2452,1.2416,1.2379,1.2328,1.2292,1.2255,1.2204,1.2154,1.2114,1.2098,1.2083,1.2098,1.2077,1.2041,1.2034,1.2028,1.2032,1.2095,1.2095,1.2117,1.2118,1.2118,1.2653,1.2615,1.2578,1.2519,1.2488,1.2454,1.2405,1.238,1.2345,1.2299,1.2261,1.2212,1.2169,1.2111,1.2064,1.205,1.203,1.2039,1.2039,1.2032,1.1994,1.1999,1.2056,1.2056,1.2056,1.2056,1.2056,1.2056,1.2612,1.2594,1.2539,1.2497,1.2459,1.242,1.2397,1.2351,1.2313,1.2259,1.2225,1.2184,1.213,1.2055,1.2021,1.1989,1.1972,1.197,1.197,1.197,1.1976,1.1951,1.1979,1.1978,1.1978,1.1978,1.1978,0,1.2571,1.2544,1.2505,1.2457,1.2424,1.2383,1.2339,1.2324,1.2253,1.2225,1.2181,1.215,1.209,1.2045,1.1992,1.1955,1.1915,1.1907,1.1906,1.1922,1.1945,1.1933,1.1872,1.1906,1.1905,1.1905,1.1904,1.1904,1.2527,1.2509,1.2433,1.2411,1.2377,1.2341,1.2313,1.225,1.2223,1.2159,1.2146,1.21,1.206,1.1996,1.194,1.1894,1.1873,1.1891,1.1866,1.1883,1.1874,1.1875,1.1873,1.1896,1.1897,1.1898,1.1899,0,1.2505,1.2448,1.2409,1.2334,1.2315,1.23,1.2235,1.2214,1.217,1.2135,1.2123,1.2054,1.2011,1.1952,1.1891,1.1861,1.1838,1.1819,1.1857,1.1849,1.1859,1.1859,1.1898,1.1901,1.1835,1.1836,1.1836,0,1.2445,1.2423,1.2338,1.2319,1.2294,1.223,1.2207,1.2167,1.2117,1.2089,1.2034,1.2008,1.1935,1.1901,1.1857,1.1827,1.1815,1.179,1.1778,1.1795,1.1798,1.1777,1.1774,1.1752,1.1752,1.1752,1.1752,0,1.2416,1.2345,1.2313,1.2287,1.2203,1.2189,1.2154,1.2097,1.2068,1.2022,1.2003,1.1954,1.1927,1.189,1.1833,1.1819,1.1794,1.1762,1.1769,1.177,1.1765,1.1766,1.1817,1.1751,1.1751,1.1751,1.1751,0,1.2357,1.2311,1.2273,1.2201,1.2185,1.2163,1.211,1.2077,1.2021,1.1991,1.1954,1.1909,1.1876,1.1849,1.1804,1.1802,1.1778,1.1751,1.175,1.1742,1.1714,1.1751,1.1806,1.1809,1.1738,1.1738,1.1738,0,1.2341,1.2286,1.223,1.2194,1.216,1.2099,1.2074,1.2025,1.1983,1.1948,1.1901,1.1861,1.1828,1.1806,1.1792,1.1741,1.1745,1.1739,1.169,1.1689,1.1707,1.1757,1.178,1.1801,1.1736,1.1736,1.1736,0,1.2321,1.2217,1.2214,1.2181,1.2105,1.2075,1.2047,1.1992,1.1972,1.1922,1.1896,1.1838,1.181,1.1775,1.1732,1.172,1.1741,1.1692,1.1689,1.1703,1.1729,1.1751,1.1755,1.1715,1.1715,1.1715,1.1734,0,1.2245,1.2208,1.2198,1.2127,1.2094,1.2067,1.2001,1.1975,1.1937,1.1892,1.1852,1.1793,1.1737,1.1724,1.1686,1.1677,1.1669,1.1639,1.1607,1.1641,1.1646,1.1648,1.1606,1.1605,1.1604,1.1603,0,0,1.2244,1.2189,1.2126,1.2094,1.2063,1.1998,1.1975,1.1936,1.1859,1.1839,1.1821,1.173,1.1682,1.164,1.1646,1.1623,1.1615,1.1605,1.1625,1.1628,1.1631,1.1637,1.164,1.1601,1.16,1.16,1.16,0,1.2202,1.2155,1.2133,1.209,1.2024,1.1976,1.1971,1.1893,1.1863,1.1822,1.1768,1.1736,1.1663,1.162,1.1589,1.1609,1.1569,1.1597,1.163,1.1616,1.1621,1.1624,1.1632,1.1635,1.1597,1.1597,1.1597,0,1.2169,1.2112,1.2094,1.2017,1.1972,1.1938,1.1888,1.1853,1.1826,1.1754,1.1714,1.1673,1.1609,1.1577,1.1561,1.1543,1.1531,1.1522,1.1527,1.1523,1.1507,1.1512,1.1517,1.1454,1.1454,1.1454,0,0,1.2142,1.2106,1.2023,1.2003,1.1979,1.1906,1.188,1.1838,1.1782,1.176,1.1704,1.1652,1.1609,1.1582,1.1537,1.1512,1.1494,1.1507,1.1514,1.152,1.1519,1.1504,1.1509,1.1453,1.1453,1.1453,0,0,1.2128,1.2031,1.2002,1.1969,1.1918,1.1834,1.1824,1.1786,1.1739,1.1734,1.166,1.1643,1.1612,1.1572,1.1569,1.1525,1.1494,1.1493,1.1551,1.1559,1.1565,1.1575,1.1509,0,0,0,0,0,1.2049,1.2043,1.2018,1.2002,1.1903,1.1849,1.1836,1.1775,1.1755,1.1749,1.1696,1.1655,1.1556,1.1552,1.1537,1.154,1.1443,1.1445,1.1446,1.1515,1.1523,1.1531,0,0,0,0,0,0,1.2042,1.2023,1.2017,1.1935,1.1912,1.1848,1.1802,1.1785,1.1754,1.1747,1.1666,1.1652,1.1599,1.1555,1.1543,1.1547,1.1513,1.1444,1.1445,1.1447,1.1518,1.1525,1.1531,0,0,0,0,0,1.2037,1.2021,1.1878,1.1934,1.1914,1.1832,1.1801,1.1787,1.1762,1.168,1.1664,1.1719,1.1601,1.1586,1.1547,1.1554,1.1521,1.1516,1.1445,1.1446,1.1447,1.1521,0,0,0,0,0,0,1.2032,1.2007,1.1873,1.1864,1.1931,1.1834,1.1817,1.1789,1.1695,1.168,1.1729,1.1724,1.1602,1.159,1.1579,1.156,1.1527,1.1523,1.152,1.1445,1.1446,1.1447,0,0,0,0,0,0,1.2015,1.2001,1.1868,1.1868,1.1859,1.1837,1.1822,1.1779,1.1695,1.1749,1.1743,1.1728,1.1618,1.1593,1.1585,1.1521,1.1532,1.1528,1.1525,1.1523,1.1446,1.1447,0,0,0,0,0,0,1.2008,1.1996,1.187,1.1863,1.1855,1.1757,1.1798,1.17,1.1695,1.1755,1.1693,1.1692,1.1622,1.1612,1.1588,1.1529,1.1523,1.1532,1.1529,1.1527,1.1526,0,0,0,0,0,0,0,1.2002,1.21,1.1922,1.1859,1.1852,1.1788,1.1785,1.1783,1.1695,1.1694,1.1693,1.1693,1.1556,1.1552,1.1547,1.1535,0,0,1.1533,1.153,0,0,0,0,0,0,0,0,1.2103,1.2101,1.1922,1.192,1.1919,1.1787,1.1785,1.1783,1.1695,1.1694,1.1694,1.1693,1.1555,1.1551,1.1548,0,0,0,0,0,0,0,0,0,0,0,0,0,0,0,1.1922,1.192,0,1.1787,1.1785,1.1784,1.1695,1.1694,1.1694,1.1693,1.1554,1.1551,1.1548,0,0,0,0,0,0,0,0,0,0,0,0,0,0,0,0,0,0,0,0,0,0,0,0,0,0,0,0,0,0,0,0,0,0,0,0,0,0,0,0,0,0,0,0,0,0,0,0,0,0,0,0,0,0,0,0,0,0,0,0,0,0,0,0,0,0,0,0,0]}],[{"header":{"parameterUnit":"kt","parameterCategory":2,"dx":1,"dy":1,"la1":30.253999710083008,"la2":30.299108505249023,"lo1":-89.0895004272461,"lo2":-89.04439544677734,"nx":28,"ny":28,"refTime":"2022-10-26T21:00:00:Z","depth":0,"parameterNumber":2,"parameterNumberName":"V-component_of_WINDS"},"data":[-9.0316,-9.0551,-9.0587,-9.0869,-9.0948,-9.1146,-9.1228,-9.1336,-9.143,-9.1667,-9.1809,-9.1864,-9.1968,-9.2142,-9.2294,-9.2314,-9.2376,-9.2435,-9.2449,-9.2158,-9.2119,-9.2083,-9.203,-9.2449,-9.2449,-9.2745,-9.2748,-9.275,-9.0102,-9.0184,-9.0344,-9.0522,-9.0659,-9.0625,-9.0761,-9.0877,-9.1054,-9.1171,-9.1312,-9.1521,-9.169,-9.1774,-9.194,-9.2047,-9.2038,-9.2089,-9.2081,-9.2098,-9.1788,-9.1733,-9.2094,-9.2094,-9.2094,-9.2094,-9.2094,-9.2094,-8.9721,-8.9861,-8.9989,-9.0163,-9.0262,-9.038,-9.0517,-9.0584,-9.0738,-9.0919,-9.0927,-9.1125,-9.1245,-9.146,-9.1538,-9.1692,-9.1639,-9.1704,-9.1721,-9.1737,-9.1751,-9.132,-9.1721,-9.172,-9.1719,-9.1718,-9.1718,0,-8.9453,-8.9474,-8.9629,-8.9795,-8.9923,-9.0054,-9.0179,-9.0264,-9.0312,-9.0437,-9.062,-9.0729,-9.0945,-9.1118,-9.1279,-9.1347,-9.1318,-9.1318,-9.1363,-9.1363,-9.1343,-9.1356,-9.085,-9.1306,-9.1302,-9.13,-9.1298,-9.1296,-8.9071,-8.9229,-8.9379,-8.9484,-8.956,-8.9727,-8.9833,-8.9864,-8.9974,-9.0129,-9.0248,-9.0423,-9.0564,-9.0846,-9.0916,-9.1075,-9.1062,-9.1233,-9.1085,-9.1079,-9.1064,-9.1055,-9.107,-9.126,-9.1265,-9.1269,-9.1272,0,-8.8853,-8.8908,-8.9163,-8.9294,-8.9332,-8.9495,-8.9605,-8.9743,-8.979,-8.9986,-9.0033,-9.0106,-9.0283,-9.0325,-9.0533,-9.0549,-9.0814,-9.0797,-9.0774,-9.0772,-9.0929,-9.0914,-9.1432,-9.1502,-9.1069,-9.1073,-9.1076,0,-8.8548,-8.8753,-8.8823,-8.8968,-8.9196,-8.9222,-8.9446,-8.9509,-8.9614,-8.9768,-8.9744,-8.9888,-8.992,-9.007,-9.0094,-9.0317,-9.0356,-9.0381,-9.0385,-9.0384,-9.0381,-9.0439,-9.0419,-9.0387,-9.0385,-9.0382,-9.038,0,-8.82,-8.8477,-8.8713,-8.8784,-8.8942,-8.9052,-8.9122,-8.9238,-8.9341,-8.9479,-8.9545,-8.9703,-8.979,-8.9911,-8.9941,-8.984,-9.0215,-9.0081,-9.024,-9.024,-9.032,-9.0315,-9.0765,-9.0377,-9.0376,-9.0375,-9.0374,0,-8.7961,-8.8105,-8.8438,-8.857,-8.8641,-8.8795,-8.8954,-8.9096,-8.922,-8.9246,-8.9355,-8.9342,-8.9541,-8.9405,-8.9679,-8.9538,-8.9624,-8.9667,-8.9679,-8.9698,-8.9545,-8.9792,-9.0217,-9.0263,-8.9717,-8.9712,-8.9707,0,-8.7548,-8.7898,-8.7923,-8.8238,-8.8405,-8.8368,-8.8539,-8.865,-8.8699,-8.8846,-8.8898,-8.9064,-8.8972,-8.9029,-8.9159,-8.9219,-8.9401,-8.9195,-8.9402,-8.9409,-8.9371,-8.9763,-8.9816,-9.012,-8.9637,-8.9645,-8.965,0,-8.7233,-8.7426,-8.748,-8.7563,-8.7715,-8.7854,-8.805,-8.8222,-8.8318,-8.8444,-8.8608,-8.8841,-8.8781,-8.8876,-8.8881,-8.9014,-8.9278,-8.8931,-8.8934,-8.8992,-8.9605,-8.9655,-8.9706,-8.9252,-8.926,-8.9267,-8.9595,0,-8.686,-8.7042,-8.7192,-8.7372,-8.7487,-8.7685,-8.7733,-8.7846,-8.7841,-8.7888,-8.8129,-8.8227,-8.8398,-8.8466,-8.8461,-8.8753,-8.871,-8.8643,-8.8513,-8.877,-8.8879,-8.8923,-8.8347,-8.8343,-8.834,-8.8338,0,0,-8.6451,-8.6712,-8.6731,-8.6924,-8.7021,-8.6978,-8.7187,-8.7275,-8.7455,-8.7523,-8.7451,-8.7794,-8.7877,-8.8163,-8.8247,-8.8315,-8.8371,-8.8279,-8.8647,-8.8681,-8.8713,-8.8829,-8.8875,-8.8333,-8.8331,-8.833,-8.8329,0,-8.6324,-8.6416,-8.6623,-8.6717,-8.6857,-8.6896,-8.6946,-8.7075,-8.7114,-8.7351,-8.7308,-8.7457,-8.773,-8.7823,-8.7906,-8.8246,-8.8204,-8.8295,-8.8464,-8.8615,-8.8653,-8.8687,-8.8809,-8.8852,-8.8322,-8.8323,-8.8323,0,-8.6023,-8.6121,-8.6225,-8.6446,-8.6536,-8.6708,-8.6584,-8.677,-8.6897,-8.6836,-8.707,-8.7131,-8.7258,-8.7523,-8.7643,-8.7581,-8.805,-8.7909,-8.7929,-8.7943,-8.8091,-8.8137,-8.8178,-8.7638,-8.7636,-8.7633,0,0,-8.5906,-8.6075,-8.6187,-8.6422,-8.6482,-8.6543,-8.6638,-8.6643,-8.6762,-8.6809,-8.6885,-8.6999,-8.7157,-8.7261,-8.7411,-8.7696,-8.7723,-8.7823,-8.7855,-8.7882,-8.7909,-8.8065,-8.811,-8.7624,-8.7624,-8.7623,0,0,-8.585,-8.599,-8.5965,-8.6244,-8.636,-8.6482,-8.6623,-8.6594,-8.6735,-8.6716,-8.6729,-8.676,-8.7008,-8.7068,-8.6935,-8.7365,-8.7235,-8.7268,-8.7317,-8.7358,-8.739,-8.737,-8.6818,0,0,0,0,0,-8.5744,-8.5973,-8.5949,-8.6002,-8.6279,-8.6496,-8.6531,-8.655,-8.6458,-8.657,-8.6629,-8.6577,-8.6999,-8.6881,-8.6932,-8.7081,-8.75,-8.7522,-8.7542,-8.7673,-8.7715,-8.7752,0,0,0,0,0,0,-8.5765,-8.5831,-8.5943,-8.6075,-8.6137,-8.6488,-8.6338,-8.6349,-8.6447,-8.6434,-8.6568,-8.6581,-8.6598,-8.6856,-8.6902,-8.7042,-8.6803,-8.7508,-8.7527,-8.7544,-8.7687,-8.7722,-8.7752,0,0,0,0,0,-8.5782,-8.5835,-8.6274,-8.6072,-8.6126,-8.6205,-8.6329,-8.6337,-8.6413,-8.6505,-8.6517,-8.6418,-8.6602,-8.6642,-8.6883,-8.7021,-8.6771,-8.6788,-8.752,-8.7535,-8.7548,-8.7705,0,0,0,0,0,0,-8.5795,-8.5843,-8.6285,-8.6302,-8.5987,-8.6186,-8.6217,-8.6327,-8.6477,-8.6492,-8.6354,-8.6342,-8.6608,-8.6637,-8.6668,-8.7013,-8.6745,-8.6763,-8.6773,-8.7532,-8.7543,-8.7553,0,0,0,0,0,0,-8.5815,-8.5858,-8.6294,-8.6186,-8.6191,-8.6168,-8.6196,-8.6402,-8.6479,-8.6318,-8.6313,-8.6347,-8.656,-8.6635,-8.6659,-8.698,-8.6725,-8.6742,-8.6753,-8.6761,-8.7541,-8.755,0,0,0,0,0,0,-8.5833,-8.587,-8.6181,-8.6185,-8.6189,-8.6381,-8.635,-8.663,-8.639,-8.6312,-8.6369,-8.6359,-8.6559,-8.6583,-8.6653,-8.6965,-8.6976,-8.6726,-8.6737,-8.6745,-8.675,0,0,0,0,0,0,0,-8.5848,-8.5596,-8.6185,-8.6185,-8.6187,-8.6459,-8.6464,-8.6469,-8.6388,-8.638,-8.6371,-8.6363,-8.663,-8.6649,-8.6667,-8.6952,0,0,-8.6724,-8.6732,0,0,0,0,0,0,0,0,-8.5581,-8.5592,-8.6185,-8.6189,-8.6192,-8.646,-8.6464,-8.6468,-8.6387,-8.638,-8.6373,-8.6367,-8.6635,-8.665,-8.6665,0,0,0,0,0,0,0,0,0,0,0,0,0,0,0,-8.6186,-8.6189,0,-8.6461,-8.6464,-8.6467,-8.6386,-8.638,-8.6375,-8.6369,-8.6639,-8.6651,-8.6664,0,0,0,0,0,0,0,0,0,0,0,0,0,0,0,0,0,0,0,0,0,0,0,0,0,0,0,0,0,0,0,0,0,0,0,0,0,0,0,0,0,0,0,0,0,0,0,0,0,0,0,0,0,0,0,0,0,0,0,0,0,0,0,0,0,0,0,0,0]}]]]